Date String (YYYY-MM-DD hh:mm:ss) UTC,Instrument flags,absolute air pressure of the measurement (hPa),sample flow rate (lpm),inlet stack bypass flow (lpm),air temperature of the measurement (°C),ambient temperature measured by the external sensor (°C),aerosol sample conditioner tube jacket temperature (°C),OPC LED temperature (°C),internal box temperature (°C),relative humidity of the measurement (%),span deviation,mass concentration of particles derived from Lorenz-Mie calculation of OPC scattering (μg/m³),mass concentration of particles derived from Lorenz-Mie calculation of OPC scattering (μg/m³),mass concentration of particles derived from Lorenz-Mie calculation of OPC scattering (μg/m³)
DateTimeUTC,F1_M11,P_M11,Q1_M11,Q2_M11,T1_M11,T2_M11,T3_M11,T4_M11,T5_M11,U1_M11,ZSPAN_M11,X2_M11,X0_M11,X1_M11
2023-11-22 08:00:00,SystemResetWarning,0835.1,4.98,000.00,021.6,020.7,000.0,030.0,022.8,10.2,0000.0,0000.53,0001.67,0000.44
2023-11-22 08:01:00,SystemResetWarning,0834.9,5.01,000.00,021.6,020.7,000.0,030.0,022.8,10.2,0000.0,0000.51,0001.60,0000.44
2023-11-22 08:02:00,SystemResetWarning,0834.8,5.00,000.00,021.6,020.7,000.0,030.0,022.7,10.2,0000.0,0000.52,0001.61,0000.44
2023-11-22 08:03:00,SystemResetWarning,0834.9,5.01,000.00,021.6,020.7,000.0,030.0,022.8,10.2,0000.0,0000.53,0001.63,0000.45
2023-11-22 08:04:00,SystemResetWarning,0834.9,5.00,000.00,021.6,020.7,000.0,030.0,022.8,10.2,0000.0,0000.53,0001.64,0000.44
2023-11-22 08:05:00,SystemResetWarning,0834.9,5.00,000.00,021.6,020.7,000.0,030.0,022.8,10.1,0000.0,0000.52,0001.62,0000.44
2023-11-22 08:06:00,SystemResetWarning,0834.9,5.00,000.00,021.6,020.7,000.0,030.0,022.8,10.1,0000.0,0000.52,0001.62,0000.44
2023-11-22 08:07:00,SystemResetWarning,0835.0,5.00,000.00,021.6,020.7,000.0,029.9,022.8,10.2,0000.0,0000.53,0001.65,0000.44
2023-11-22 08:08:00,SystemResetWarning,0834.9,5.00,000.00,021.6,020.7,000.0,029.9,022.8,10.2,0000.0,0000.52,0001.64,0000.44
2023-11-22 08:09:00,SystemResetWarning,0834.9,5.01,000.00,021.6,020.7,000.0,029.9,022.8,10.2,0000.0,0000.50,0001.18,0000.44
2023-11-22 08:10:00,SystemResetWarning,0834.9,5.00,000.00,021.6,020.7,000.0,029.9,022.8,10.2,0000.0,0000.51,0001.72,0000.43
2023-11-22 08:11:00,SystemResetWarning,0834.9,5.00,000.00,021.6,020.7,000.0,029.9,022.8,10.3,0000.0,0000.52,0001.75,0000.44
2023-11-22 08:12:00,SystemResetWarning,0834.9,5.00,000.00,021.6,020.7,000.0,029.9,022.7,10.3,0000.0,0000.52,0001.76,0000.44
2023-11-22 08:13:00,SystemResetWarning,0834.9,5.00,000.00,021.6,020.7,000.0,029.9,022.7,10.4,0000.0,0000.53,0001.77,0000.44
2023-11-22 08:14:00,SystemResetWarning,0834.9,5.00,000.00,021.6,020.7,000.0,029.9,022.8,10.4,0000.0,0000.51,0001.74,0000.44
2023-11-22 08:15:00,SystemResetWarning,0834.9,5.00,000.00,021.5,020.7,000.0,029.9,022.7,10.4,0000.0,0000.52,0001.75,0000.44
2023-11-22 08:16:00,SystemResetWarning,0835.1,5.00,000.00,021.6,020.7,000.0,029.9,022.8,10.3,0000.0,0000.52,0001.74,0000.44
2023-11-22 08:17:00,SystemResetWarning,0835.2,5.00,000.00,021.5,020.7,000.0,029.9,022.8,10.4,0000.0,0000.52,0001.75,0000.44
2023-11-22 08:18:00,SystemResetWarning,0834.8,5.00,000.00,021.5,020.7,000.0,029.9,022.8,10.4,0000.0,0000.51,0001.73,0000.44
2023-11-22 08:19:00,SystemResetWarning,0834.9,5.00,000.00,021.5,020.7,000.0,029.9,022.7,10.4,0000.0,0000.52,0001.74,0000.44
2023-11-22 08:20:00,SystemResetWarning,0835.0,5.00,000.00,021.5,020.7,000.0,029.9,022.7,10.4,0000.0,0000.51,0001.45,0000.44
2023-11-22 08:21:00,SystemResetWarning,0834.9,5.00,000.00,021.5,020.6,000.0,029.9,022.8,10.4,0000.0,0000.49,0000.69,0000.43
2023-11-22 08:22:00,SystemResetWarning,0835.1,5.00,000.00,021.5,020.6,000.0,029.9,022.8,10.4,0000.0,0000.48,0000.68,0000.42
2023-11-22 08:23:00,SystemResetWarning,0835.3,5.00,000.00,021.5,020.7,000.0,029.9,022.8,10.4,0000.0,0000.49,0000.71,0000.41
2023-11-22 08:24:00,SystemResetWarning,0835.3,4.99,000.00,021.5,020.7,000.0,029.9,022.8,10.4,0000.0,0000.51,0000.80,0000.41
2023-11-22 08:25:00,SystemResetWarning,0835.3,5.00,000.00,021.5,020.7,000.0,029.9,022.8,10.3,0000.0,0000.51,0000.79,0000.40
2023-11-22 08:26:00,SystemResetWarning,0835.3,5.00,000.00,021.5,020.7,000.0,029.9,022.7,10.3,0000.0,0000.50,0000.77,0000.40
2023-11-22 08:27:00,SystemResetWarning,0835.3,5.01,000.00,021.5,020.7,000.0,029.9,022.7,10.4,0000.0,0000.49,0000.76,0000.40
2023-11-22 08:28:00,SystemResetWarning,0835.3,5.00,000.00,021.5,020.7,000.0,029.9,022.7,10.3,0000.0,0000.50,0000.76,0000.40
2023-11-22 08:29:00,SystemResetWarning,0835.3,5.00,000.00,021.5,020.6,000.0,029.9,022.7,10.4,0000.0,0000.49,0000.73,0000.40
2023-11-22 08:30:00,SystemResetWarning,0835.3,5.00,000.00,021.5,020.6,000.0,029.9,022.7,10.4,0000.0,0000.49,0000.73,0000.40
2023-11-22 08:31:00,SystemResetWarning,0835.3,5.00,000.00,021.5,020.6,000.0,029.9,022.7,10.4,0000.0,0000.49,0000.74,0000.40
2023-11-22 08:32:00,SystemResetWarning,0835.3,5.00,000.00,021.5,020.6,000.0,029.9,022.7,10.4,0000.0,0000.50,0000.75,0000.40
2023-11-22 08:33:00,SystemResetWarning,0835.3,5.00,000.00,021.5,020.6,000.0,029.9,022.7,10.4,0000.0,0000.48,0000.71,0000.40
2023-11-22 08:34:00,SystemResetWarning,0835.3,5.00,000.00,021.5,020.6,000.0,029.9,022.7,10.4,0000.0,0000.47,0000.66,0000.40
2023-11-22 08:35:00,SystemResetWarning,0835.0,5.01,000.00,021.5,020.6,000.0,029.9,022.7,10.4,0000.0,0000.44,0000.56,0000.40
2023-11-22 08:36:00,SystemResetWarning,0834.9,5.01,000.00,021.5,020.6,000.0,029.9,022.7,10.4,0000.0,0000.44,0000.56,0000.40
2023-11-22 08:37:00,SystemResetWarning,0834.8,5.00,000.00,021.5,020.6,000.0,029.8,022.6,10.4,0000.0,0000.45,0000.56,0000.40
2023-11-22 08:38:00,SystemResetWarning,0834.7,4.99,000.00,021.5,020.6,000.0,029.8,022.6,10.4,0000.0,0000.44,0000.54,0000.39
2023-11-22 08:39:00,SystemResetWarning,0834.7,5.00,000.00,021.5,020.6,000.0,029.8,022.6,10.4,0000.0,0000.44,0000.54,0000.39
2023-11-22 08:40:00,SystemResetWarning,0834.7,5.00,000.00,021.5,020.6,000.0,029.8,022.6,10.5,0000.0,0000.43,0000.53,0000.39
2023-11-22 08:41:00,SystemResetWarning,0834.9,5.00,000.00,021.5,020.6,000.0,029.8,022.6,10.5,0000.0,0000.42,0000.51,0000.38
2023-11-22 08:42:00,SystemResetWarning,0835.0,4.99,000.00,021.4,020.6,000.0,029.8,022.6,10.5,0000.0,0000.41,0000.50,0000.38
2023-11-22 08:43:00,SystemResetWarning,0835.0,4.99,000.00,021.4,020.6,000.0,029.8,022.6,10.4,0000.0,0000.42,0000.54,0000.38
2023-11-22 08:44:00,SystemResetWarning,0835.2,5.00,000.00,021.4,020.6,000.0,029.8,022.5,10.4,0000.0,0000.42,0000.55,0000.38
2023-11-22 08:45:00,SystemResetWarning,0835.1,5.01,000.00,021.4,020.6,000.0,029.8,022.6,10.4,0000.0,0000.43,0000.55,0000.38
2023-11-22 08:46:00,SystemResetWarning,0835.2,5.00,000.00,021.4,020.6,000.0,029.8,022.6,10.4,0000.0,0000.43,0001.25,0000.38
2023-11-22 08:47:00,SystemResetWarning,0835.1,5.01,000.00,021.4,020.5,000.0,029.8,022.6,10.4,0000.0,0000.43,0001.30,0000.38
2023-11-22 08:48:00,SystemResetWarning,0835.1,4.99,000.00,021.4,020.5,000.0,029.8,022.6,10.4,0000.0,0000.41,0001.28,0000.38
2023-11-22 08:49:00,SystemResetWarning,0835.1,4.99,000.00,021.4,020.5,000.0,029.8,022.6,10.5,0000.0,0000.41,0001.28,0000.38
2023-11-22 08:50:00,SystemResetWarning,0834.8,5.00,000.00,021.4,020.5,000.0,029.8,022.6,10.5,0000.0,0000.40,0002.06,0000.37
2023-11-22 08:51:00,SystemResetWarning,0834.7,5.00,000.00,021.4,020.5,000.0,029.8,022.6,10.5,0000.0,0000.41,0002.14,0000.37
2023-11-22 08:52:00,SystemResetWarning,0834.6,5.00,000.00,021.4,020.5,000.0,029.8,022.6,10.4,0000.0,0000.41,0002.19,0000.37
2023-11-22 08:53:00,SystemResetWarning,0834.6,5.00,000.00,021.4,020.5,000.0,029.8,022.5,10.4,0000.0,0000.43,0002.27,0000.37
2023-11-22 08:54:00,SystemResetWarning,0834.8,5.00,000.00,021.4,020.5,000.0,029.8,022.6,10.5,0000.0,0000.42,0002.23,0000.37
2023-11-22 08:55:00,SystemResetWarning,0834.6,5.00,000.00,021.4,020.5,000.0,029.7,022.5,10.4,0000.0,0000.42,0002.23,0000.37
2023-11-22 08:56:00,SystemResetWarning,0834.7,5.00,000.00,021.4,020.5,000.0,029.7,022.5,10.3,0000.0,0000.43,0002.27,0000.37
2023-11-22 08:57:00,SystemResetWarning,0835.0,5.00,000.00,021.3,020.5,000.0,029.7,022.5,10.3,0000.0,0000.42,0001.79,0000.36
2023-11-22 08:58:00,SystemResetWarning,0835.0,5.00,000.00,021.3,020.5,000.0,029.7,022.5,10.3,0000.0,0000.43,0001.53,0000.36
2023-11-22 08:59:00,SystemResetWarning,0834.7,5.00,000.00,021.3,020.4,000.0,029.7,022.5,10.2,0000.0,0000.44,0001.58,0000.36
